UPS2334 KSDF-KMIA

Flight info

Callsign UPS2334
Flight time N/A
Altitude 39000
Route LOKRD1 BILET NOTWO/N0483F380 HONID FROGZ5
Aircraft B744/H-SDE3FGHIM1M2RWXY/LB1

Departure

Time 2026-05-04 12:14
Airport Louisville Muhammad Ali International Airport (KSDF)

Arrival

Time N/A
Airport Miami International Airport (KMIA)
Time Latitude Longitude Altitude Speed Heading
2026-05-04 11:45 38.17147 -85.72996 496 ft 0 kts 21°
2026-05-04 12:05 38.17161 -85.72989 465 ft 5 kts 21°
2026-05-04 12:05 38.17173 -85.72978 498 ft 2 kts 48°
2026-05-04 12:06 38.17179 -85.72955 491 ft 4 kts 78°
2026-05-04 12:06 38.17170 -85.72899 493 ft 10 kts 113°
2026-05-04 12:06 38.17131 -85.72805 484 ft 15 kts 117°
2026-05-04 12:06 38.17114 -85.72734 484 ft 2 kts 80°
2026-05-04 12:07 38.17118 -85.72723 486 ft 1 kts 61°
2026-05-04 12:07 38.17125 -85.72712 484 ft 1 kts 44°
2026-05-04 12:07 38.17134 -85.72707 484 ft 3 kts 24°
2026-05-04 12:07 38.17177 -85.72682 483 ft 10 kts 26°
2026-05-04 12:08 38.17254 -85.72661 485 ft 11 kts 358°
2026-05-04 12:08 38.17346 -85.72689 489 ft 17 kts 334°
2026-05-04 12:08 38.17447 -85.72808 490 ft 23 kts 311°
2026-05-04 12:08 38.17564 -85.72906 502 ft 19 kts 346°
2026-05-04 12:09 38.17712 -85.72952 504 ft 24 kts 346°
2026-05-04 12:09 38.17886 -85.73010 507 ft 27 kts 346°
2026-05-04 12:09 38.18074 -85.73062 510 ft 28 kts 348°
2026-05-04 12:09 38.18254 -85.73123 515 ft 28 kts 341°
2026-05-04 12:10 38.18419 -85.73190 519 ft 24 kts 343°
2026-05-04 12:10 38.18581 -85.73248 521 ft 23 kts 343°
2026-05-04 12:10 38.18644 -85.73261 522 ft 1 kts 13°
2026-05-04 12:10 38.18645 -85.73260 522 ft 0 kts 19°
2026-05-04 12:11 38.18650 -85.73258 522 ft 2 kts 22°
2026-05-04 12:11 38.18669 -85.73240 522 ft 5 kts 45°
2026-05-04 12:11 38.18685 -85.73185 521 ft 8 kts 89°
2026-05-04 12:12 38.18666 -85.73142 521 ft 5 kts 143°
2026-05-04 12:12 38.18642 -85.73127 521 ft 0 kts 155°
2026-05-04 12:14 38.14802 -85.71267 2081 ft 182 kts 159°
2026-05-04 12:15 38.13564 -85.70664 2621 ft 197 kts 173°
2026-05-04 12:15 38.12216 -85.70467 3338 ft 202 kts 188°
2026-05-04 12:15 38.10743 -85.70352 4051 ft 225 kts 180°
2026-05-04 12:15 38.09138 -85.69911 4826 ft 248 kts 170°
2026-05-04 12:16 38.08084 -85.69227 5357 ft 268 kts 149°
2026-05-04 12:16 38.06213 -85.66909 6294 ft 298 kts 137°
2026-05-04 12:16 38.04797 -85.64928 7129 ft 306 kts 138°
2026-05-04 12:16 38.03308 -85.62978 8066 ft 309 kts 140°
2026-05-04 12:17 38.01693 -85.61201 8990 ft 305 kts 156°
2026-05-04 12:17 37.99812 -85.59995 9914 ft 304 kts 161°
2026-05-04 12:17 37.98538 -85.59233 10460 ft 308 kts 162°
2026-05-04 12:17 37.96556 -85.58049 11063 ft 323 kts 161°
2026-05-04 12:18 37.94476 -85.56771 11517 ft 342 kts 160°
2026-05-04 12:18 37.92286 -85.55410 11947 ft 361 kts 160°
2026-05-04 12:18 37.89970 -85.53982 12404 ft 378 kts 160°
2026-05-04 12:18 37.87571 -85.52510 13113 ft 387 kts 160°
2026-05-04 12:19 37.85127 -85.51009 13911 ft 393 kts 159°
2026-05-04 12:19 37.82651 -85.49489 14660 ft 398 kts 159°
2026-05-04 12:19 37.80147 -85.47954 15380 ft 403 kts 159°
2026-05-04 12:19 37.77600 -85.46396 16078 ft 408 kts 159°
2026-05-04 12:20 37.75028 -85.44823 16766 ft 414 kts 159°
2026-05-04 12:20 37.72420 -85.43228 17438 ft 419 kts 159°
2026-05-04 12:20 37.69785 -85.41619 18092 ft 424 kts 159°
2026-05-04 12:20 37.67110 -85.39985 18691 ft 429 kts 158°
2026-05-04 12:21 37.64406 -85.38336 19252 ft 434 kts 158°
2026-05-04 12:21 37.61679 -85.36674 19764 ft 438 kts 158°
2026-05-04 12:21 37.58919 -85.34994 20288 ft 442 kts 158°
2026-05-04 12:21 37.56088 -85.33498 20791 ft 440 kts 168°
2026-05-04 12:22 37.53108 -85.32735 21286 ft 438 kts 176°
2026-05-04 12:22 37.50076 -85.32205 21745 ft 441 kts 177°
2026-05-04 12:22 37.47022 -85.31696 22185 ft 444 kts 177°
2026-05-04 12:22 37.43950 -85.31176 22724 ft 448 kts 177°
2026-05-04 12:23 37.40851 -85.30635 23133 ft 451 kts 176°
2026-05-04 12:23 37.37732 -85.30094 23497 ft 454 kts 176°
2026-05-04 12:23 37.34602 -85.29561 23852 ft 456 kts 176°
2026-05-04 12:23 37.31441 -85.29022 24155 ft 458 kts 177°
2026-05-04 12:24 37.28281 -85.28479 24460 ft 460 kts 177°
2026-05-04 12:24 37.25099 -85.27933 24654 ft 462 kts 177°
2026-05-04 12:24 37.21907 -85.27388 24951 ft 464 kts 177°
2026-05-04 12:24 37.18710 -85.26843 25227 ft 465 kts 177°
2026-05-04 12:25 37.15496 -85.26294 25509 ft 467 kts 177°
2026-05-04 12:25 37.12272 -85.25744 25779 ft 468 kts 177°
2026-05-04 12:25 37.09080 -85.25200 26068 ft 470 kts 177°
2026-05-04 12:25 37.05835 -85.24648 26389 ft 471 kts 178°
2026-05-04 12:26 37.02578 -85.24094 26700 ft 473 kts 178°
2026-05-04 12:26 36.99309 -85.23538 27041 ft 475 kts 178°
2026-05-04 12:26 36.96026 -85.22981 27378 ft 477 kts 178°
2026-05-04 12:26 36.92729 -85.22422 27748 ft 479 kts 178°
2026-05-04 12:27 36.89425 -85.21862 28073 ft 481 kts 178°
2026-05-04 12:27 36.86102 -85.21250 28458 ft 485 kts 176°
2026-05-04 12:27 36.82767 -85.20559 28862 ft 486 kts 177°
2026-05-04 12:27 36.79412 -85.19918 29266 ft 489 kts 177°
2026-05-04 12:28 36.76046 -85.19261 29687 ft 492 kts 176°
2026-05-04 12:28 36.72655 -85.18566 30115 ft 495 kts 176°
2026-05-04 12:28 36.69243 -85.17870 30503 ft 498 kts 177°
2026-05-04 12:28 36.65809 -85.17191 30886 ft 501 kts 177°
2026-05-04 12:29 36.62355 -85.16511 31252 ft 504 kts 177°
2026-05-04 12:29 36.58881 -85.15814 31652 ft 507 kts 177°
2026-05-04 12:29 36.55397 -85.15112 32166 ft 508 kts 177°
2026-05-04 12:29 36.51914 -85.14417 32808 ft 506 kts 178°
2026-05-04 12:30 36.48438 -85.13728 33433 ft 505 kts 178°
2026-05-04 12:30 36.44967 -85.13040 34026 ft 505 kts 178°
2026-05-04 12:30 36.41547 -85.12359 34509 ft 504 kts 178°
2026-05-04 12:30 36.38045 -85.11663 34971 ft 504 kts 178°
2026-05-04 12:31 36.34628 -85.10986 35449 ft 503 kts 178°
2026-05-04 12:31 36.31171 -85.10258 35904 ft 506 kts 174°
2026-05-04 12:31 36.27764 -85.09036 36367 ft 511 kts 169°
2026-05-04 12:31 36.24369 -85.07709 36763 ft 512 kts 169°
2026-05-04 12:32 36.20978 -85.06375 37160 ft 512 kts 169°
2026-05-04 12:32 36.14171 -85.03731 37880 ft 512 kts 169°
2026-05-04 12:32 36.10767 -85.02408 38252 ft 513 kts 169°
2026-05-04 12:33 36.07370 -85.01084 38615 ft 513 kts 169°
2026-05-04 12:33 36.03961 -84.99759 38918 ft 512 kts 169°
2026-05-04 12:33 36.00578 -84.98448 39090 ft 509 kts 169°
2026-05-04 12:34 35.93844 -84.95841 39088 ft 505 kts 169°
2026-05-04 12:34 35.87156 -84.93255 39090 ft 503 kts 169°
2026-05-04 12:35 35.80481 -84.90679 39066 ft 502 kts 169°
2026-05-04 12:35 35.73814 -84.88111 39076 ft 502 kts 169°
2026-05-04 12:36 35.67145 -84.85546 39079 ft 502 kts 169°
2026-05-04 12:36 35.60536 -84.83009 39096 ft 501 kts 169°
2026-05-04 12:37 35.53875 -84.80456 39116 ft 501 kts 169°
2026-05-04 12:37 35.47212 -84.77907 39126 ft 501 kts 169°
2026-05-04 12:38 35.40548 -84.75362 39132 ft 502 kts 169°
2026-05-04 12:38 35.33892 -84.72823 39094 ft 501 kts 169°
2026-05-04 12:39 35.27243 -84.70294 39097 ft 501 kts 169°
2026-05-04 12:39 35.20590 -84.67765 39097 ft 500 kts 169°
2026-05-04 12:40 35.13938 -84.65243 39087 ft 500 kts 169°
2026-05-04 12:40 35.07291 -84.62725 39097 ft 500 kts 169°
2026-05-04 12:41 35.00679 -84.60227 39099 ft 500 kts 169°
2026-05-04 12:41 34.94027 -84.57716 39107 ft 501 kts 169°
2026-05-04 12:42 34.87367 -84.55206 39117 ft 500 kts 169°
2026-05-04 12:42 34.80701 -84.52702 39114 ft 501 kts 169°
2026-05-04 12:43 34.74035 -84.50197 39113 ft 501 kts 169°
2026-05-04 12:43 34.67374 -84.47702 39110 ft 501 kts 169°
2026-05-04 12:44 34.60704 -84.45205 39078 ft 501 kts 169°
2026-05-04 12:44 34.54037 -84.42716 39104 ft 501 kts 169°
2026-05-04 12:45 34.47372 -84.40229 39102 ft 502 kts 169°
2026-05-04 12:45 34.40702 -84.37747 39148 ft 501 kts 169°
2026-05-04 12:46 34.34027 -84.35265 39082 ft 502 kts 169°
2026-05-04 12:46 34.27348 -84.32787 39102 ft 502 kts 169°
2026-05-04 12:47 34.20705 -84.30387 39112 ft 497 kts 175°
2026-05-04 12:47 34.17318 -84.29870 39126 ft 487 kts 186°
2026-05-04 12:47 34.13961 -84.29974 39127 ft 479 kts 192°
2026-05-04 12:48 34.07337 -84.30762 39111 ft 480 kts 192°
2026-05-04 12:48 34.00589 -84.30876 39147 ft 486 kts 188°
2026-05-04 12:49 33.93876 -84.31164 39149 ft 482 kts 191°
2026-05-04 12:49 33.87148 -84.31417 39147 ft 484 kts 189°
2026-05-04 12:50 33.80421 -84.31654 39133 ft 483 kts 190°
2026-05-04 12:50 33.73685 -84.31921 39114 ft 485 kts 189°
2026-05-04 12:51 33.66937 -84.32159 39130 ft 485 kts 190°
2026-05-04 12:51 33.60199 -84.32419 39147 ft 485 kts 189°
2026-05-04 12:52 33.53452 -84.32662 39164 ft 486 kts 190°
2026-05-04 12:52 33.46677 -84.32918 39180 ft 487 kts 190°
2026-05-04 12:53 33.39949 -84.33164 39182 ft 487 kts 190°
2026-05-04 12:53 33.33181 -84.33416 39183 ft 487 kts 190°
2026-05-04 12:54 33.26415 -84.33664 39170 ft 487 kts 190°
2026-05-04 12:54 33.19642 -84.33914 39153 ft 487 kts 190°
2026-05-04 12:55 33.12877 -84.34163 39142 ft 487 kts 190°
2026-05-04 12:55 33.06104 -84.34412 39128 ft 487 kts 190°
2026-05-04 12:56 32.99332 -84.34660 39161 ft 489 kts 191°
2026-05-04 12:56 32.92534 -84.34908 39161 ft 489 kts 191°
2026-05-04 12:57 32.85739 -84.35157 39155 ft 488 kts 191°
2026-05-04 12:57 32.78944 -84.35405 39146 ft 488 kts 191°
2026-05-04 12:58 32.72136 -84.35653 39134 ft 492 kts 191°
2026-05-04 12:58 32.65305 -84.35900 39121 ft 490 kts 191°
2026-05-04 12:59 32.58502 -84.36147 39112 ft 489 kts 191°
2026-05-04 12:59 32.51708 -84.36395 39113 ft 488 kts 191°
2026-05-04 13:00 32.44926 -84.36640 39125 ft 489 kts 192°
2026-05-04 13:00 32.38158 -84.36885 39124 ft 490 kts 192°
2026-05-04 13:01 32.31342 -84.37131 39127 ft 490 kts 192°
2026-05-04 13:01 32.24533 -84.37377 39128 ft 490 kts 192°
2026-05-04 13:02 32.17708 -84.37623 39120 ft 492 kts 192°
2026-05-04 13:02 32.10869 -84.37867 39123 ft 491 kts 192°
2026-05-04 13:03 32.04029 -84.38113 39130 ft 492 kts 192°
2026-05-04 13:03 31.97195 -84.38357 39121 ft 491 kts 192°
2026-05-04 13:04 31.90346 -84.38606 39140 ft 494 kts 192°
2026-05-04 13:04 31.83477 -84.38847 39142 ft 494 kts 192°
2026-05-04 13:05 31.76611 -84.39094 39138 ft 493 kts 192°
2026-05-04 13:05 31.69753 -84.39337 39141 ft 493 kts 192°
2026-05-04 13:06 31.62868 -84.39176 39163 ft 512 kts 181°
2026-05-04 13:06 31.55843 -84.37304 39179 ft 521 kts 174°
2026-05-04 13:07 31.48828 -84.35440 39177 ft 513 kts 179°
2026-05-04 13:07 31.41805 -84.33752 39173 ft 518 kts 176°
2026-05-04 13:08 31.34781 -84.31909 39153 ft 517 kts 178°
2026-05-04 13:08 31.27745 -84.30187 39155 ft 517 kts 177°
2026-05-04 13:09 31.20712 -84.28383 39158 ft 517 kts 178°
2026-05-04 13:09 31.13685 -84.26640 39161 ft 517 kts 177°
2026-05-04 13:10 31.07838 -84.25161 39158 ft 517 kts 177°
2026-05-04 13:10 31.00814 -84.23407 39153 ft 516 kts 177°
2026-05-04 13:11 30.93784 -84.21646 39141 ft 517 kts 177°
2026-05-04 13:11 30.86753 -84.19890 39151 ft 517 kts 177°
2026-05-04 13:12 30.79723 -84.18137 39141 ft 516 kts 177°
2026-05-04 13:12 30.72710 -84.16390 39139 ft 516 kts 177°
2026-05-04 13:13 30.65693 -84.14645 39131 ft 515 kts 177°
2026-05-04 13:13 30.58683 -84.12904 39131 ft 515 kts 177°
2026-05-04 13:14 30.51664 -84.11164 39130 ft 515 kts 177°
2026-05-04 13:14 30.44649 -84.09427 39132 ft 515 kts 177°
2026-05-04 13:15 30.37689 -84.07620 39139 ft 522 kts 170°
2026-05-04 13:15 30.34253 -84.05983 39155 ft 534 kts 160°
2026-05-04 13:15 30.31006 -84.03840 39150 ft 540 kts 154°
2026-05-04 13:16 30.24755 -83.99104 39135 ft 538 kts 155°
2026-05-04 13:16 30.18244 -83.94984 39149 ft 531 kts 159°
2026-05-04 13:17 30.11826 -83.90678 39160 ft 534 kts 155°
2026-05-04 13:17 30.05390 -83.86434 39154 ft 531 kts 158°
2026-05-04 13:18 29.98958 -83.82205 39153 ft 533 kts 156°
2026-05-04 13:18 29.92536 -83.77952 39145 ft 531 kts 157°
2026-05-04 13:19 29.86118 -83.73752 39143 ft 530 kts 157°
2026-05-04 13:19 29.79717 -83.69531 39137 ft 530 kts 157°
2026-05-04 13:20 29.73306 -83.65339 39127 ft 530 kts 157°
2026-05-04 13:20 29.66900 -83.61136 39081 ft 530 kts 157°
2026-05-04 13:21 29.60561 -83.56995 39130 ft 527 kts 157°
2026-05-04 13:21 29.54181 -83.52828 39127 ft 527 kts 157°
2026-05-04 13:22 29.47798 -83.48668 39127 ft 527 kts 157°
2026-05-04 13:22 29.41422 -83.44517 39128 ft 527 kts 157°
2026-05-04 13:23 29.35040 -83.40368 39130 ft 526 kts 157°
2026-05-04 13:23 29.28683 -83.36242 39129 ft 526 kts 157°
2026-05-04 13:24 29.22204 -83.32467 39137 ft 520 kts 163°
2026-05-04 13:24 29.15572 -83.29170 39136 ft 520 kts 163°
2026-05-04 13:25 29.05662 -83.24112 39130 ft 518 kts 163°
2026-05-04 13:25 28.99069 -83.20791 39124 ft 517 kts 163°
2026-05-04 13:26 28.92539 -83.17481 39118 ft 516 kts 163°
2026-05-04 13:26 28.85976 -83.14177 39121 ft 515 kts 163°
2026-05-04 13:27 28.79421 -83.10870 39114 ft 515 kts 163°
2026-05-04 13:27 28.72882 -83.07582 39112 ft 513 kts 163°
2026-05-04 13:28 28.66368 -83.04307 39112 ft 512 kts 163°
2026-05-04 13:28 28.59851 -83.01038 39105 ft 512 kts 163°
2026-05-04 13:29 28.53337 -82.97774 39106 ft 512 kts 163°
2026-05-04 13:29 28.46818 -82.94511 39084 ft 511 kts 163°
2026-05-04 13:30 28.40324 -82.91266 39110 ft 509 kts 163°
2026-05-04 13:30 28.33839 -82.88030 39102 ft 509 kts 163°
2026-05-04 13:31 28.27347 -82.84793 39101 ft 509 kts 163°
2026-05-04 13:31 28.20864 -82.81567 39097 ft 509 kts 163°
2026-05-04 13:32 28.14389 -82.78346 39094 ft 507 kts 164°
2026-05-04 13:32 28.07979 -82.75167 39096 ft 506 kts 164°
2026-05-04 13:33 28.01533 -82.72004 39095 ft 500 kts 168°
2026-05-04 13:33 27.98222 -82.70997 39115 ft 488 kts 178°
2026-05-04 13:33 27.94890 -82.70406 39106 ft 484 kts 181°
2026-05-04 13:34 27.88214 -82.69273 39111 ft 488 kts 177°
2026-05-04 13:34 27.81554 -82.67834 39091 ft 484 kts 179°
2026-05-04 13:35 27.71604 -82.65927 39090 ft 484 kts 178°
2026-05-04 13:36 27.64979 -82.64617 39090 ft 483 kts 179°
2026-05-04 13:36 27.58346 -82.63323 39085 ft 484 kts 179°
2026-05-04 13:37 27.51721 -82.61895 39094 ft 489 kts 174°
2026-05-04 13:37 27.45138 -82.59940 39084 ft 490 kts 174°
2026-05-04 13:38 27.38586 -82.58023 39090 ft 489 kts 174°
2026-05-04 13:38 27.31998 -82.56087 39090 ft 490 kts 174°
2026-05-04 13:39 27.25403 -82.54153 39088 ft 488 kts 174°
2026-05-04 13:39 27.18826 -82.52230 39080 ft 488 kts 174°
2026-05-04 13:40 27.12253 -82.50308 39081 ft 488 kts 174°
2026-05-04 13:40 27.05673 -82.48387 39072 ft 488 kts 174°
2026-05-04 13:41 26.99144 -82.46482 39071 ft 488 kts 174°
2026-05-04 13:41 26.92569 -82.44520 39082 ft 493 kts 169°
2026-05-04 13:42 26.86488 -82.40583 39098 ft 521 kts 146°
2026-05-04 13:42 26.83845 -82.37770 39094 ft 526 kts 141°
2026-05-04 13:42 26.78791 -82.31843 39092 ft 524 kts 143°
2026-05-04 13:43 26.73251 -82.26672 39082 ft 516 kts 150°
2026-05-04 13:43 26.67702 -82.21505 39076 ft 522 kts 145°
2026-05-04 13:44 26.62255 -82.16174 39059 ft 517 kts 148°
2026-05-04 13:44 26.56773 -82.11045 39059 ft 518 kts 146°
2026-05-04 13:45 26.51330 -82.05692 39057 ft 518 kts 145°
2026-05-04 13:45 26.45994 -82.00361 39054 ft 518 kts 145°
2026-05-04 13:46 26.40652 -81.94958 39053 ft 519 kts 145°
2026-05-04 13:46 26.35287 -81.89579 39061 ft 519 kts 145°
2026-05-04 13:47 26.29935 -81.84197 39054 ft 517 kts 146°
2026-05-04 13:47 26.27269 -81.81525 38860 ft 517 kts 146°
2026-05-04 13:47 26.24602 -81.78840 38338 ft 518 kts 142°
2026-05-04 13:48 26.22237 -81.75764 37832 ft 529 kts 130°
2026-05-04 13:48 26.20396 -81.72186 37339 ft 537 kts 119°
2026-05-04 13:48 26.18953 -81.68338 36865 ft 540 kts 114°
2026-05-04 13:48 26.17664 -81.64404 36373 ft 541 kts 113°
2026-05-04 13:49 26.16313 -81.60502 35903 ft 541 kts 117°
2026-05-04 13:49 26.14680 -81.56724 35453 ft 540 kts 121°
2026-05-04 13:49 26.12890 -81.53051 34927 ft 542 kts 122°
2026-05-04 13:49 26.11130 -81.49317 34247 ft 545 kts 118°
2026-05-04 13:50 26.09543 -81.45477 33501 ft 547 kts 116°
2026-05-04 13:50 26.07981 -81.41676 32766 ft 548 kts 118°
2026-05-04 13:50 26.06257 -81.37827 32036 ft 549 kts 119°
2026-05-04 13:50 26.04570 -81.34104 31766 ft 539 kts 118°
2026-05-04 13:51 26.02966 -81.30386 31444 ft 535 kts 117°
2026-05-04 13:51 26.01375 -81.26643 30732 ft 535 kts 118°
2026-05-04 13:51 25.99749 -81.22921 30030 ft 535 kts 118°
2026-05-04 13:51 25.98102 -81.19212 29202 ft 534 kts 118°
2026-05-04 13:52 25.94878 -81.11815 27667 ft 527 kts 118°
2026-05-04 13:52 25.93287 -81.08171 26932 ft 521 kts 118°
2026-05-04 13:52 25.91705 -81.04582 26210 ft 514 kts 118°
2026-05-04 13:53 25.90275 -81.00968 25521 ft 508 kts 115°
2026-05-04 13:53 25.88905 -80.97385 24761 ft 502 kts 115°
2026-05-04 13:53 25.87531 -80.93823 23877 ft 501 kts 115°
2026-05-04 13:54 25.84814 -80.86744 21868 ft 496 kts 115°
2026-05-04 13:54 25.83466 -80.83233 20902 ft 492 kts 115°
2026-05-04 13:54 25.80790 -80.76295 19040 ft 485 kts 116°
2026-05-04 13:55 25.79473 -80.72877 18127 ft 480 kts 116°
2026-05-04 13:55 25.77070 -80.66219 16100 ft 448 kts 106°
2026-05-04 13:55 25.76681 -80.62872 15122 ft 429 kts 90°
2026-05-04 13:56 25.76923 -80.59670 14194 ft 406 kts 81°
2026-05-04 13:56 25.77431 -80.56661 13183 ft 388 kts 79°
2026-05-04 13:56 25.77802 -80.50928 11192 ft 362 kts 88°
2026-05-04 13:57 25.77885 -80.48163 10231 ft 353 kts 87°
2026-05-04 13:57 25.78018 -80.45493 9237 ft 341 kts 86°
2026-05-04 13:58 25.78337 -80.37949 6313 ft 314 kts 86°
2026-05-04 13:58 25.78531 -80.33192 4377 ft 304 kts 86°
2026-05-04 13:58 25.78639 -80.30875 3477 ft 295 kts 86°
2026-05-04 13:59 25.78708 -80.28680 3039 ft 273 kts 91°
2026-05-04 13:59 25.78259 -80.26760 2991 ft 245 kts 112°
2026-05-04 13:59 25.77119 -80.23500 2995 ft 220 kts 104°
2026-05-04 14:00 25.76742 -80.21862 2994 ft 225 kts 101°
2026-05-04 14:00 25.75932 -80.18452 2997 ft 229 kts 104°
2026-05-04 14:00 25.75506 -80.16738 3015 ft 231 kts 103°
2026-05-04 14:01 25.75057 -80.15021 3002 ft 234 kts 107°
2026-05-04 14:01 25.74391 -80.13373 3004 ft 234 kts 115°
2026-05-04 14:01 25.72898 -80.10150 3034 ft 238 kts 115°
2026-05-04 14:02 25.72185 -80.08514 3006 ft 234 kts 115°
2026-05-04 14:02 25.71456 -80.06896 3011 ft 234 kts 121°
2026-05-04 14:02 25.70290 -80.05699 3018 ft 232 kts 155°
2026-05-04 14:02 25.68718 -80.05374 3037 ft 232 kts 188°
2026-05-04 14:03 25.67247 -80.06008 3015 ft 226 kts 222°
2026-05-04 14:03 25.66295 -80.07357 3037 ft 218 kts 251°